| time (UTC) | temp F | wind direction | speed knots | gust knots | rain 1hr in | rain 24hr in | rain mn in | humidity % | barometer mb |
| 20260901201512 | 79 | 192 | 14.8 | 26.9 | 0.00 | 0.00 | 0.00 | 19 | 1002.2 |
| 20260901200010 | 78 | 155 | 17.4 | 30.4 | 0.00 | 0.00 | 0.00 | 19 | 1002.2 |
| 20260901194511 | 79 | 184 | 7.0 | 19.1 | 0.00 | 0.00 | 0.00 | 19 | 1002.5 |
| 20260901193006 | 78 | 193 | 11.3 | 23.5 | 0.00 | 0.00 | 0.00 | 19 | 1002.7 |
| 20260901191503 | 78 | 144 | 10.4 | 16.5 | 0.00 | 0.00 | 0.00 | 23 | 1002.8 |
| 20260901190111 | 77 | 141 | 11.3 | 24.3 | 0.00 | 0.00 | 0.00 | 24 | 1003.0 |
| 20260901184559 | 77 | 173 | 13.9 | 26.1 | 0.00 | 0.00 | 0.00 | 21 | 1003.4 |
| 20260901183056 | 77 | 155 | 9.6 | 21.7 | 0.00 | 0.00 | 0.00 | 21 | 1003.7 |
| 20260901181558 | 76 | 141 | 8.7 | 20.0 | 0.00 | 0.00 | 0.00 | 22 | 1003.7 |
| 20260901180050 | 75 | 183 | 8.7 | 25.2 | 0.00 | 0.00 | 0.00 | 22 | 1003.8 |
| 20260901174548 | 74 | 162 | 6.1 | 19.1 | 0.00 | 0.00 | 0.00 | 26 | 1003.8 |
| 20260901173047 | 75 | 174 | 9.6 | 28.7 | 0.00 | 0.00 | 0.00 | 25 | 1003.8 |
| 20260901171602 | 75 | 183 | 8.7 | 20.9 | 0.00 | 0.00 | 0.00 | 25 | 1003.8 |
| 20260901170045 | 73 | 145 | 8.7 | 19.1 | 0.00 | 0.00 | 0.00 | 26 | 1004.0 |
| 20260901164538 | 70 | 171 | 1.7 | 7.8 | 0.00 | 0.00 | 0.00 | 37 | 1004.3 |
| 20260901163032 | 69 | 45 | 6.1 | 8.7 | 0.00 | 0.00 | 0.00 | 38 | 1004.3 |
| 20260901161529 | 67 | 62 | 7.8 | 13.9 | 0.00 | 0.00 | 0.00 | 39 | 1004.4 |
| 20260901160026 | 66 | 360 | 3.5 | 9.6 | 0.00 | 0.00 | 0.00 | 42 | 1004.5 |
| 20260901154620 | 65 | 360 | 4.3 | 8.7 | 0.00 | 0.00 | 0.00 | 42 | 1004.7 |
| 20260901153018 | 63 | 360 | 4.3 | 8.7 | 0.00 | 0.00 | 0.00 | 43 | 1004.8 |
| 20260901151516 | 63 | 119 | 1.7 | 8.7 | 0.00 | 0.00 | 0.00 | 46 | 1005.0 |
| 20260901150013 | 62 | 95 | 3.5 | 5.2 | 0.00 | 0.00 | 0.00 | 47 | 1005.0 |
| 20260901144510 | 61 | 56 | 1.7 | 2.6 | 0.00 | 0.00 | 0.00 | 47 | 1005.0 |
| 20260901143010 | 59 | 50 | 0.9 | 2.6 | 0.00 | 0.00 | 0.00 | 48 | 1005.1 |
| 20260901141513 | 56 | 55 | 3.5 | 6.1 | 0.00 | 0.00 | 0.00 | 53 | 1005.0 |
| 20260901140007 | 56 | 108 | 0.9 | 3.5 | 0.00 | 0.00 | 0.00 | 53 | 1005.0 |
| 20260901134506 | 55 | 316 | 0.9 | 2.6 | 0.00 | 0.00 | 0.00 | 55 | 1005.1 |
| 20260901133006 | 55 | 360 | 0.0 | 1.7 | 0.00 | 0.00 | 0.00 | 54 | 1005.1 |
| 20260901131504 | 55 | 82 | 1.7 | 4.3 | 0.00 | 0.00 | 0.00 | 52 | 1005.1 |
| 20260901130105 | 56 | 347 | 0.9 | 2.6 | 0.00 | 0.00 | 0.00 | 51 | 1005.1 |
| 20260901124502 | 55 | 65 | 1.7 | 5.2 | 0.00 | 0.00 | 0.00 | 51 | 1005.0 |
| 20260901123101 | 55 | 348 | 0.9 | 3.5 | 0.00 | 0.00 | 0.00 | 51 | 1005.0 |
| 20260901121606 | 55 | 86 | 1.7 | 3.5 | 0.00 | 0.00 | 0.00 | 51 | 1005.0 |
| 20260901120055 | 56 | 74 | 0.9 | 2.6 | 0.00 | 0.00 | 0.00 | 49 | 1005.0 |
| 20260901114600 | 57 | 76 | 2.6 | 7.0 | 0.00 | 0.00 | 0.00 | 48 | 1005.0 |
| 20260901113052 | 57 | 360 | 0.9 | 3.5 | 0.00 | 0.00 | 0.00 | 48 | 1004.8 |
| 20260901111550 | 58 | 72 | 0.0 | 8.7 | 0.00 | 0.00 | 0.00 | 47 | 1004.9 |
| 20260901110053 | 58 | 32 | 1.7 | 3.5 | 0.00 | 0.00 | 0.00 | 47 | 1004.9 |
| 20260901104548 | 59 | 67 | 1.7 | 5.2 | 0.00 | 0.00 | 0.00 | 45 | 1004.9 |
| 20260901103051 | 58 | 44 | 2.6 | 4.3 | 0.00 | 0.00 | 0.00 | 46 | 1004.9 |
| 20260901101546 | 59 | 100 | 1.7 | 6.1 | 0.00 | 0.00 | 0.00 | 46 | 1005.0 |
| 20260901100048 | 60 | 36 | 4.3 | 7.0 | 0.00 | 0.00 | 0.00 | 44 | 1005.0 |
| 20260901094543 | 60 | 88 | 1.7 | 4.3 | 0.00 | 0.00 | 0.00 | 43 | 1004.9 |
| 20260901093042 | 61 | 61 | 0.9 | 3.5 | 0.00 | 0.00 | 0.00 | 42 | 1004.8 |
| 20260901091549 | 60 | 302 | 3.5 | 5.2 | 0.00 | 0.00 | 0.00 | 44 | 1004.7 |
| 20260901090040 | 60 | 293 | 0.0 | 5.2 | 0.00 | 0.00 | 0.00 | 44 | 1004.7 |
| 20260901084540 | 59 | 355 | 0.9 | 4.3 | 0.00 | 0.00 | 0.00 | 43 | 1004.8 |
| 20260901083040 | 60 | 311 | 1.7 | 3.5 | 0.00 | 0.00 | 0.00 | 42 | 1005.0 |
| 20260901081542 | 59 | 51 | 0.0 | 5.2 | 0.00 | 0.00 | 0.00 | 44 | 1005.0 |
| 20260901080039 | 59 | 9 | 1.7 | 2.6 | 0.00 | 0.00 | 0.00 | 43 | 1005.1 |
| 20260901074536 | 59 | 351 | 1.7 | 3.5 | 0.00 | 0.00 | 0.00 | 43 | 1004.9 |
| 20260901073036 | 59 | 126 | 0.9 | 2.6 | 0.00 | 0.00 | 0.00 | 42 | 1005.0 |
| 20260901071535 | 59 | 11 | 0.9 | 1.7 | 0.00 | 0.00 | 0.00 | 41 | 1004.9 |
| 20260901070034 | 61 | 355 | 0.9 | 4.3 | 0.00 | 0.00 | 0.00 | 39 | 1004.9 |
| 20260901064530 | 62 | 325 | 2.6 | 4.3 | 0.00 | 0.00 | 0.00 | 39 | 1004.7 |
| 20260901063036 | 64 | 309 | 1.7 | 3.5 | 0.00 | 0.00 | 0.00 | 38 | 1004.7 |
| 20260901061527 | 64 | 311 | 2.6 | 4.3 | 0.00 | 0.00 | 0.00 | 38 | 1004.8 |
| 20260901060026 | 64 | 360 | 2.6 | 5.2 | 0.00 | 0.00 | 0.00 | 38 | 1004.5 |
| 20260901054533 | 65 | 242 | 2.6 | 7.8 | 0.00 | 0.00 | 0.00 | 38 | 1004.7 |
| 20260901053025 | 65 | 298 | 1.7 | 3.5 | 0.00 | 0.00 | 0.00 | 37 | 1004.1 |
| 20260901051525 | 66 | 297 | 2.6 | 7.0 | 0.00 | 0.00 | 0.00 | 36 | 1004.1 |
| 20260901050025 | 68 | 269 | 5.2 | 7.0 | 0.00 | 0.00 | 0.00 | 34 | 1004.1 |
| 20260901044527 | 69 | 277 | 1.7 | 7.8 | 0.00 | 0.00 | 0.00 | 34 | 1004.2 |
| 20260901043024 | 69 | 246 | 1.7 | 5.2 | 0.00 | 0.00 | 0.00 | 34 | 1004.0 |
| 20260901041523 | 69 | 262 | 4.3 | 8.7 | 0.00 | 0.00 | 0.00 | 34 | 1004.1 |
| 20260901040022 | 69 | 265 | 4.3 | 9.6 | 0.00 | 0.00 | 0.00 | 34 | 1004.1 |
| 20260901034528 | 71 | 232 | 4.3 | 9.6 | 0.00 | 0.00 | 0.00 | 33 | 1004.0 |
| 20260901033021 | 71 | 178 | 6.1 | 13.0 | 0.00 | 0.00 | 0.00 | 32 | 1003.8 |
| 20260901031528 | 72 | 144 | 8.7 | 17.4 | 0.00 | 0.00 | 0.00 | 31 | 1003.8 |
| 20260901030019 | 73 | 135 | 9.6 | 17.4 | 0.00 | 0.00 | 0.00 | 31 | 1004.0 |
| 20260901024519 | 74 | 138 | 7.8 | 17.4 | 0.00 | 0.00 | 0.00 | 30 | 1003.9 |
| 20260901023023 | 75 | 115 | 6.1 | 18.2 | 0.00 | 0.00 | 0.00 | 28 | 1003.6 |
| 20260901021519 | 76 | 116 | 2.6 | 8.7 | 0.00 | 0.00 | 0.00 | 24 | 1003.4 |
| 20260901020020 | 77 | 64 | 4.3 | 8.7 | 0.00 | 0.00 | 0.00 | 23 | 1003.3 |
| 20260901014516 | 77 | 360 | 7.0 | 12.2 | 0.00 | 0.00 | 0.00 | 23 | 1003.1 |
| 20260901013033 | 77 | 84 | 2.6 | 9.6 | 0.00 | 0.00 | 0.00 | 24 | 1003.3 |
| 20260901011514 | 77 | 68 | 5.2 | 12.2 | 0.00 | 0.00 | 0.00 | 24 | 1003.3 |
| 20260901010014 | 77 | 360 | 7.8 | 13.9 | 0.00 | 0.00 | 0.00 | 24 | 1003.3 |
| 20260901004513 | 79 | 88 | 5.2 | 20.0 | 0.00 | 0.00 | 0.00 | 24 | 1003.2 |
| 20260901003014 | 81 | 81 | 2.6 | 6.1 | 0.00 | 0.00 | 0.00 | 20 | 1002.9 |
| 20260901001515 | 82 | 114 | 5.2 | 13.9 | 0.00 | 0.00 | 0.00 | 20 | 1003.0 |
| 20260901000010 | 82 | 107 | 4.3 | 16.5 | 0.00 | 0.00 | 0.00 | 20 | 1003.0 |
| 20260831234509 | 82 | 89 | 7.8 | 20.0 | 0.00 | 0.00 | 0.00 | 20 | 1003.0 |
| 20260831233009 | 82 | 104 | 7.0 | 14.8 | 0.00 | 0.00 | 0.00 | 18 | 1003.0 |
| 20260831231511 | 82 | 142 | 4.3 | 8.7 | 0.00 | 0.00 | 0.00 | 19 | 1003.1 |
| 20260831230014 | 80 | 229 | 4.3 | 7.0 | 0.00 | 0.00 | 0.00 | 20 | 1003.0 |
| 20260831224504 | 83 | 201 | 7.8 | 13.9 | 0.00 | 0.00 | 0.00 | 17 | 1003.3 |
| 20260831223003 | 83 | 142 | 5.2 | 10.4 | 0.00 | 0.00 | 0.00 | 17 | 1003.5 |
| 20260831221501 | 83 | 204 | 0.9 | 7.8 | 0.00 | 0.00 | 0.00 | 18 | 1003.6 |
| 20260831220059 | 83 | 171 | 4.3 | 7.0 | 0.00 | 0.00 | 0.00 | 17 | 1003.8 |
| 20260831214559 | 83 | 136 | 4.3 | 8.7 | 0.00 | 0.00 | 0.00 | 17 | 1004.0 |
| 20260831213056 | 83 | 148 | 5.2 | 7.8 | 0.00 | 0.00 | 0.00 | 17 | 1004.1 |
| 20260831211555 | 84 | 5 | 2.6 | 8.7 | 0.00 | 0.00 | 0.00 | 16 | 1004.3 |
| 20260831210052 | 83 | 225 | 1.7 | 8.7 | 0.00 | 0.00 | 0.00 | 17 | 1004.6 |
| 20260831204548 | 84 | 222 | 0.0 | 4.3 | 0.00 | 0.00 | 0.00 | 17 | 1005.0 |
| 20260831203104 | 82 | 117 | 6.1 | 12.2 | 0.00 | 0.00 | 0.00 | 18 | 1005.4 |